When you browse on this site, cookies collect data to enhance your experience and personalize the content and advertising you see.
Visit our Privacy Policy to learn more. By continuing to use the site, you agree to this use of cookies and data.
  • In Hungary
  • List of Countries
  • For 7 days
  • Water Temperature
  • Weather Map
  • News
  • Weather Widgets
  • user-avatar
    Login

    Hourly Weather Floresta

    Today, 6 December, Friday

    Time Temperature Precipitation Wind Pressure Humidity
    00:00 +9°C° 0 mm 0 mps 553 mmHg 89%
    01:00 +10°C° 0 mm 1 mps 553 mmHg 88%
    02:00 +9°C° 0 mm 1 mps 553 mmHg 85%
    03:00 +9°C° 0 mm 1 mps 552 mmHg 83%
    04:00 +9°C° 0 mm 1 mps 552 mmHg 81%
    05:00 +10°C° 0 mm 1 mps 553 mmHg 78%
    06:00 +10°C° 0 mm 0 mps 554 mmHg 75%
    07:00 +11°C° 0 mm 0 mps 555 mmHg 72%
    08:00 +14°C° 0 mm 0 mps 557 mmHg 63%
    09:00 +17°C° 0 mm 0 mps 558 mmHg 53%
    10:00 +20°C° 0 mm 0 mps 560 mmHg 44%
    11:00 +22°C° 0 mm 1 mps 559 mmHg 45%
    12:00 +22°C° 0 mm 1 mps 559 mmHg 46%
    13:00 +21°C° 0 mm 2 mps 558 mmHg 47%
    14:00 +20°C° 0.3 mm 2 mps 557 mmHg 58%
    15:00 +19°C° 0.3 mm 2 mps 556 mmHg 69%
    16:00 +17°C° 0.3 mm 2 mps 555 mmHg 80%
    17:00 +16°C° 0.6 mm 1 mps 555 mmHg 85%
    18:00 +15°C° 0.6 mm 1 mps 555 mmHg 90%
    19:00 +13°C° 0.6 mm 1 mps 555 mmHg 95%
    20:00 +12°C° 0.3 mm 0 mps 555 mmHg 95%
    21:00 +11°C° 0.3 mm 0 mps 555 mmHg 95%
    22:00 +11°C° 0.3 mm 0 mps 555 mmHg 95%
    23:00 +10°C° 0 mm 0 mps 554 mmHg 95%

    Tomorrow, 7 December, Saturday

    Time Temperature Precipitation Wind Pressure Humidity
    00:00 +10°C° 0 mm 0 mps 554 mmHg 95%
    01:00 +10°C° 0 mm 0 mps 553 mmHg 95%
    02:00 +9°C° 0 mm 0 mps 553 mmHg 95%
    03:00 +9°C° 0 mm 0 mps 553 mmHg 95%
    04:00 +9°C° 0 mm 0 mps 553 mmHg 95%
    05:00 +10°C° 0 mm 0 mps 554 mmHg 94%
    06:00 +11°C° 0 mm 0 mps 554 mmHg 93%
    07:00 +11°C° 0 mm 0 mps 555 mmHg 91%
    08:00 +14°C° 0 mm 0 mps 557 mmHg 84%
    09:00 +16°C° 0 mm 0 mps 558 mmHg 76%
    10:00 +19°C° 0 mm 0 mps 559 mmHg 68%
    11:00 +20°C° 0.4 mm 1 mps 558 mmHg 71%
    12:00 +20°C° 0.4 mm 1 mps 557 mmHg 74%
    13:00 +18°C° 0.4 mm 2 mps 556 mmHg 76%
    14:00 +18°C° 0.8 mm 1 mps 556 mmHg 81%
    15:00 +16°C° 0.8 mm 1 mps 555 mmHg 85%
    16:00 +16°C° 0.8 mm 1 mps 554 mmHg 89%
    17:00 +15°C° 0.6 mm 1 mps 554 mmHg 92%
    18:00 +14°C° 0.6 mm 1 mps 554 mmHg 94%
    19:00 +12°C° 0.6 mm 0 mps 554 mmHg 97%
    20:00 +12°C° 0.3 mm 0 mps 554 mmHg 97%
    21:00 +12°C° 0.3 mm 0 mps 555 mmHg 97%
    22:00 +11°C° 0.3 mm 0 mps 555 mmHg 96%
    23:00 +11°C° 0 mm 0 mps 554 mmHg 96%

    Day after tomorrow, 8 December, Sunday

    Time Temperature Precipitation Wind Pressure Humidity
    00:00 +10°C° 0 mm 0 mps 554 mmHg 96%
    01:00 +10°C° 0 mm 0 mps 553 mmHg 96%
    02:00 +10°C° 0 mm 0 mps 553 mmHg 96%
    03:00 +9°C° 0 mm 0 mps 553 mmHg 96%
    04:00 +9°C° 0 mm 0 mps 552 mmHg 96%
    05:00 +10°C° 0 mm 0 mps 553 mmHg 95%
    06:00 +10°C° 0 mm 0 mps 554 mmHg 95%
    07:00 +11°C° 0 mm 0 mps 554 mmHg 94%
    08:00 +13°C° 0 mm 0 mps 556 mmHg 86%
    09:00 +15°C° 0 mm 0 mps 557 mmHg 78%
    10:00 +19°C° 0 mm 1 mps 558 mmHg 70%
    11:00 +19°C° 0.4 mm 1 mps 557 mmHg 71%
    12:00 +19°C° 0.4 mm 1 mps 557 mmHg 72%
    13:00 +19°C° 0.4 mm 1 mps 556 mmHg 73%
    14:00 +18°C° 0.8 mm 1 mps 555 mmHg 78%
    15:00 +18°C° 0.8 mm 1 mps 555 mmHg 83%
    16:00 +16°C° 0.8 mm 1 mps 554 mmHg 88%
    17:00 +15°C° 0.7 mm 1 mps 554 mmHg 91%
    18:00 +14°C° 0.7 mm 1 mps 554 mmHg 94%
    19:00 +13°C° 0.7 mm 1 mps 554 mmHg 97%
    20:00 +13°C° 0.3 mm 1 mps 554 mmHg 97%
    21:00 +12°C° 0.3 mm 0 mps 554 mmHg 97%
    22:00 +11°C° 0.3 mm 0 mps 555 mmHg 97%
    23:00 +11°C° 0.2 mm 0 mps 554 mmHg 97%

    9 December, Monday

    Time Temperature Precipitation Wind Pressure Humidity
    00:00 +11°C° 0.2 mm 0 mps 554 mmHg 97%
    01:00 +11°C° 0.2 mm 0 mps 554 mmHg 97%
    02:00 +11°C° 0 mm 0 mps 553 mmHg 97%
    03:00 +11°C° 0 mm 0 mps 553 mmHg 97%
    04:00 +10°C° 0 mm 0 mps 553 mmHg 97%
    05:00 +11°C° 0 mm 0 mps 554 mmHg 95%
    06:00 +11°C° 0 mm 0 mps 554 mmHg 94%
    07:00 +12°C° 0 mm 0 mps 555 mmHg 93%
    08:00 +14°C° 0.1 mm 0 mps 556 mmHg 85%
    09:00 +16°C° 0.1 mm 0 mps 557 mmHg 77%
    10:00 +18°C° 0.1 mm 0 mps 558 mmHg 69%
    11:00 +19°C° 0.9 mm 1 mps 557 mmHg 74%
    12:00 +19°C° 0.9 mm 1 mps 556 mmHg 79%
    13:00 +18°C° 0.9 mm 1 mps 555 mmHg 84%
    14:00 +18°C° 1.3 mm 1 mps 555 mmHg 86%
    15:00 +16°C° 1.3 mm 1 mps 554 mmHg 87%
    16:00 +16°C° 1.3 mm 1 mps 553 mmHg 88%
    17:00 +15°C° 2 mm 1 mps 554 mmHg 91%
    18:00 +13°C° 2 mm 0 mps 554 mmHg 93%
    19:00 +12°C° 2 mm 0 mps 554 mmHg 96%
    20:00 +12°C° 0.4 mm 0 mps 554 mmHg 96%
    21:00 +12°C° 0.4 mm 0 mps 554 mmHg 96%
    22:00 +12°C° 0.4 mm 0 mps 555 mmHg 95%
    23:00 +11°C° 0.3 mm 0 mps 554 mmHg 96%

    10 December, Tuesday

    Time Temperature Precipitation Wind Pressure Humidity
    00:00 +11°C° 0.3 mm 0 mps 554 mmHg 96%
    01:00 +10°C° 0.3 mm 0 mps 553 mmHg 96%
    02:00 +10°C° 0.1 mm 0 mps 553 mmHg 96%
    03:00 +10°C° 0.1 mm 0 mps 553 mmHg 96%
    04:00 +10°C° 0.1 mm 0 mps 552 mmHg 95%
    05:00 +10°C° 0 mm 0 mps 553 mmHg 93%
    06:00 +11°C° 0 mm 0 mps 554 mmHg 90%
    07:00 +11°C° 0 mm 0 mps 554 mmHg 88%
    08:00 +14°C° 0 mm 0 mps 556 mmHg 75%
    09:00 +17°C° 0 mm 0 mps 557 mmHg 62%
    10:00 +19°C° 0 mm 0 mps 559 mmHg 49%
    11:00 +21°C° 0.1 mm 1 mps 558 mmHg 49%
    12:00 +22°C° 0.1 mm 1 mps 558 mmHg 48%
    13:00 +22°C° 0.1 mm 1 mps 558 mmHg 47%
    14:00 +21°C° 0.1 mm 1 mps 557 mmHg 56%
    15:00 +19°C° 0.1 mm 2 mps 555 mmHg 64%
    16:00 +18°C° 0.1 mm 2 mps 554 mmHg 73%
    17:00 +16°C° 0.2 mm 1 mps 554 mmHg 81%
    18:00 +15°C° 0.2 mm 1 mps 554 mmHg 89%
    19:00 +12°C° 0.2 mm 0 mps 554 mmHg 96%
    20:00 +12°C° 0.1 mm 0 mps 554 mmHg 96%
    21:00 +11°C° 0.1 mm 0 mps 554 mmHg 96%
    22:00 +11°C° 0.1 mm 0 mps 554 mmHg 96%
    23:00 +11°C° 0 mm 0 mps 554 mmHg 96%

    11 December, Wednesday

    Time Temperature Precipitation Wind Pressure Humidity
    00:00 +11°C° 0 mm 0 mps 554 mmHg 96%
    01:00 +11°C° 0 mm 0 mps 553 mmHg 96%
    02:00 +11°C° 0 mm 0 mps 553 mmHg 96%
    03:00 +10°C° 0 mm 0 mps 553 mmHg 96%
    04:00 +10°C° 0 mm 0 mps 553 mmHg 97%
    05:00 +11°C° 0 mm 0 mps 553 mmHg 95%
    06:00 +11°C° 0 mm 0 mps 554 mmHg 94%
    07:00 +11°C° 0 mm 0 mps 555 mmHg 93%
    08:00 +14°C° 0 mm 0 mps 556 mmHg 84%
    09:00 +16°C° 0 mm 0 mps 557 mmHg 74%
    10:00 +18°C° 0 mm 0 mps 558 mmHg 65%
    11:00 +20°C° 0.3 mm 1 mps 558 mmHg 67%
    12:00 +20°C° 0.3 mm 1 mps 557 mmHg 69%
    13:00 +19°C° 0.3 mm 2 mps 556 mmHg 70%
    14:00 +18°C° 0.6 mm 2 mps 555 mmHg 76%
    15:00 +18°C° 0.6 mm 1 mps 554 mmHg 82%
    16:00 +16°C° 0.6 mm 1 mps 553 mmHg 88%
    17:00 +15°C° 0.5 mm 1 mps 553 mmHg 91%
    18:00 +14°C° 0.5 mm 1 mps 553 mmHg 94%
    19:00 +13°C° 0.5 mm 1 mps 553 mmHg 97%
    20:00 +13°C° 0.5 mm 1 mps 554 mmHg 97%
    21:00 +11°C° 0.5 mm 0 mps 554 mmHg 97%
    22:00 +11°C° 0.5 mm 0 mps 554 mmHg 97%
    23:00 +10°C° 0.2 mm 0 mps 554 mmHg 97%
    Show more